Погода Андрюшкино

Погода Андрюшкино : погода сейчас, прогноз погоды и архив. Всё, что Вы хотите узнать о погоде Андрюшкино!

Поиск расширенной информации на нашем сайте:

Полезная информация: Смотрите подробности профнастил ростов у нас.

Другие новости

Новости СМИ2

Главная страница сайта

Новости сайта

02.10.2013

Напоминаем, что на нашем новом сайте вы можете получить высокодетализированные прогнозы погоды по пунктам России, СНГ и мира (включающие важные для авиации метеовеличины, такие как направление и скорость ветра, видимость, явления погоды, количество и форма облачности, нижняя и верхняя граница облачности), а также ознакомиться с разнообразными материалами по авиационной метеорологии и подборкой полезных ссылок на эту тему.

Сайт Метеоцентр.Азия посвящён разработке технологий оптимизации авиаметеорологического обслуживания, включая проектирование и перспективное создание нескольких автоматизированных авиаметеорологических систем:
- система выпуска высокодетальных прогностических карт явлений погоды для нижнего воздушного пространства по России и ближнему зарубежью;
- система верификации прогнозов TAF (выпускаемых синоптиками официальных АМСГ РФ и ближнего зарубежья) и AUTOTAF (выпускаемых сайтом Метеоцентр.Азия) - выявление ошибок, онлайн-сопоставление с фактической погодой METAR, автоматическое внесение коррективов в прогнозы при резком отклонении фактической погоды от прогноза, подсчёт оправдываемости прогнозов по элементам и в целом;
- система обработки, анализа и отображения авиаметеорологической информации для применения провайдерами метеорологической информации.

Рекомендуем: Правила обследования зданий и сооружений.

Погода Андрюшкино - сегодня

Время (UTC), дата Ветер
(°,м/с) 
Видим.   Явления Облачность Т
(°С)
Тd
(°С)
f(%) Тe
(°С)
Pmin
(гПа)
dP
(гПа)
Po
(мм)
O2
(г/м3)
Тmin Tmax R s Состояние
почвы
03 24.03.17 190 (Ю) //  20000 м    1/0 средняя 
[Ac trans]
-9.2 -11.7 82 -9  1016.2  -1.8  761  318           
06 24.03.17 190 (Ю) //  20000 м    1/0 средняя 
[Ac trans]
-8 -12.1 72 -8  1014.7  -1.5  759  316           
09 24.03.17 180 (Ю) //  20000 м    3/0 средняя 
[Ac trans]
-12.4 -15.1 80 -12  1014.8  759  322    -8       
12 24.03.17 180 (Ю) //  20000 м    1/0 средняя 
[Ac trans]
-16.8 -18.1 90 -17  1014.9  0.1  760  328           
15 24.03.17 180 (Ю) //  20000 м    3/0 средняя 
[Ac trans]
-16 -16.6 95 -16  1014.2  -0.7  759  326           
18 24.03.17 200 (Ю) //  20000 м    1/0 средняя 
[As trans]
-19 -19.6 95 -19  1013.9  -0.3  759  330           
21 24.03.17 180 (Ю) //  20000 м    3/0 средняя, верхняя 
[Ac trans|Ci fib]
-20.2 -20.8 95 -20  1014.4  0.5  759  332  -20.7      94  равномерный
сухой снег
100% 
00 25.03.17 190 (Ю) //  20000 м    6/0 средняя, верхняя 
[Ac trans|Ci fib]
-16.7 -17.3 95 -17  1014.8  0.4  759  327           
03 25.03.17 000 (С) //  20000 м    8/0 средняя, верхняя 
[Ac trans|Ci fib]
-13.4 -14 95 -13  1014.8  759  323           
06 25.03.17 360 (С) //  20000 м    8/0 средняя, верхняя 
[Ac trans|Ci fib]
-14.5 -15.1 95 -15  1015.7  0.9  760  325           
09 25.03.17 340 (С) //  20000 м  {снег}  4/0 средняя, верхняя 
[As trans|Ci fib]
-15.4 -16 95 -15  1016.7  761  326    -12.4  0.3     
12 25.03.17 320 (СЗ) //  20000 м  {снег}  ясно 
-21 -21.6 95 -21  1017.6  0.9  762  334           
15 25.03.17 360 (С) //  20000 м    ясно 
-21.7 -23.5 85 -22  1017.7  0.1  762  335           
18 25.03.17 010 (С) //  20000 м    ясно 
-25.5 -26.7 90 -26  1017.9  0.1  762  340           
21 25.03.17 360 (С) //  20000 м    4/0 верхняя 
[Cs]
-27 -28.2 89 -27  1018.2  0.3  762  343  -29      94  равномерный
сухой снег
100% 
00 26.03.17 000 (С) //  10 км    ясно 
[]
-20.7 -21.3 95 -21  1017.6  -0.5  762  334           
03 26.03.17 070 (В) //  20000 м    ясно 
-19.4 -20.6 90 -19  1016.7  -0.9  761  332           
06 26.03.17 090 (В) //  20000 м    3/0 верхняя 
[Ci fib]
-16.5 -17.8 90 -17  1015.3  -1.4  760  327           
09 26.03.17 140 (ЮВ) //  20000 м    6/0 средняя, верхняя 
[Ac trans|Ci fib]
-16.1 -17.4 90 -16  1014.7  -0.6  759  327    -15.5       
12 26.03.17 160 (Ю) //  20000 м    4/0 средняя, верхняя 
[Ac trans|Ci fib]
-15 -15.6 95 -15  1014  -0.7  759  325           
15 26.03.17 180 (Ю) //  20000 м    3/0 средняя 
[Ac trans]
-17.3 -17.9 95 -17  1013.1  -0.9  758  328           
18 26.03.17 180 (Ю) //  20000 м    4/0 средняя 
[Ac trans]
-16.9 -17.5 95 -17  1012.6  -0.5  758  327           
21 26.03.17 170 (Ю) //  20000 м    ясно 
-17.5 -18.1 95 -18  1012.5  -0.1  758  328  -20      94  равномерный
сухой снег
100% 
00 27.03.17 180 (Ю) //  20000 м    ясно 
-16.6 -17.9 90 -17  1012.4  -0.1  758  327           
03 27.03.17 180 (Ю) //  20000 м    ясно 
-12 -15.5 75 -12  1011.4  -0.9  757  320           
Время (UTC), дата Ветер
(°,м/с) 
Видим.   Явления Облачность Т
(°С)
Тd
(°С)
f(%) Тe
(°С)
Pmin
(гПа)
dP
(гПа)
Po
(мм)
O2
(г/м3)
Тmin Tmax R s Состояние
почвы

Для получения пояснительной информации подведите курсор к названию столбца.

ПОГОДА Андрюшкино - архив

Всё, что Вы хотите узнать о погоде Андрюшкино - удобно и подробно!

Выберите нужную дату (начиная с 1 января 2015* года) и нажмите кнопку "Найти".
Будут отображены архивные сводки погоды по пункту Андрюшкино, начиная с указанной даты.


Отображать данные в формате CSV (для использования в таблицах Excel)


Внимание! Наш архив погоды предназначен исключительно для личного некоммерческого использования в познавательных целях. Если Вам необходимы официальные справки о состоянии погоды (для производственных, юридических, коммерческих и т.п. целей), обращайтесь в органы Росгидромета.

*Примечание: данная дата относится к архиву по метеостанциям СССР (Россия, СНГ, Балтия).
Архив по метеостанциям Зарубежной Европы и Азии (кроме Китая) хранится 10 дней, по другим регионам земного шара (Китай, Африка, Америка, Австралия, Океания) - 1 день.

Андрюшкино - район местоположения метеостанции


Название, широта, долгота, высота метеостанции:
Андрюшкино 69.2°ш. 154.4°д. 46 м над ур. моря [Российская Федерация]

Дополнительная информация

В oтличие oт бoльшинства пoгoдных сайтoв мы публикуем пoдрoбную метеoинфoрмацию в детальнoм прoфессиoнальнoм фoрмате.

Характеристики температуры и влажнoсти вoздуха измеряются на высoте 2 м в тени вдали oт зданий и деревьев.
Скoрoсть ветра измеряется на высoте 10 м (на урoвне рoста челoвека скoрoсть ветра ниже в 1.5-2 раза). Если метеoстанция нахoдится в гoрoде или в лесу, тo скoрoсть ветра занижена на 2-4 м/с пo сравнению с oткрытым местoм. Скoрoсть ветра над акватoриями крупных рек и oзёр, а также на вершинах хoлмoв на 2-5 м/с выше, чем в oбычных услoвиях.
Атмoсфернoе давление в разных тoчках местнoсти мoжет значительнo oтличаться oт давления на метеoстанции, в зависимoсти oт услoвий рельефа (при пoдъёме на 10 м давление пoнижается примернo на 1 мм рт.ст.).